,,,PA_Meas_PMT16A,,PR_Meas_QMR101_102,,RH_Meas_QMH101,,SR_Meas_QMS101,,TA_Meas_QMH101,,GenWind,,GenWind,
date,time,status,PA,status,PR,status,RH,status,SR,status,TA,status,DirAvg,status,SpdAvg,
2008-10-17, 00:00:04,VALID,1008.15,VALID,0,VALID,95.4134,VALID,0.105969,VALID,23.8091,VALID,100,VALID,0.843359,
2008-10-17, 00:01:04,VALID,1008.14,VALID,0,VALID,95.4058,VALID,0,VALID,23.8091,VALID,101,VALID,0.544531,
2008-10-17, 00:02:04,VALID,1008.13,VALID,0,VALID,95.4516,VALID,0.105969,VALID,23.8091,VALID,101,VALID,0.269531,
2008-10-17, 00:03:04,VALID,1008.15,VALID,0,VALID,95.4439,VALID,0.105969,VALID,23.8286,VALID,101,VALID,0.273828,
2008-10-17, 00:04:04,VALID,1008.15,VALID,0,VALID,95.4516,VALID,0.105969,VALID,23.8286,VALID,116,VALID,0.733594,
2008-10-17, 00:05:04,VALID,1008.13,VALID,0,VALID,95.4668,VALID,0.105969,VALID,23.8286,VALID,76,VALID,0.173828,
2008-10-17, 00:06:04,VALID,1008.12,VALID,0,VALID,95.4439,VALID,0,VALID,23.8091,VALID,123,VALID,0.551172,
2008-10-17, 00:07:04,VALID,1008.08,VALID,0,VALID,95.4592,VALID,0.105969,VALID,23.8286,VALID,124,VALID,0.550391,
2008-10-17, 00:08:04,VALID,1008.11,VALID,0,VALID,95.4744,VALID,0.105969,VALID,23.8091,VALID,123,VALID,0.521094,
2008-10-17, 00:09:04,VALID,1008.1,VALID,0,VALID,95.4516,VALID,0.105969,VALID,23.7701,VALID,109,VALID,1,
2008-10-17, 00:10:04,VALID,1008.08,VALID,0,VALID,95.4668,VALID,0.105969,VALID,23.7701,VALID,106,VALID,0.670313,
2008-10-17, 00:11:04,VALID,1008.09,VALID,0,VALID,95.4744,VALID,0,VALID,23.7896,VALID,106,VALID,0.526563,
2008-10-17, 00:12:04,VALID,1008.09,VALID,0,VALID,95.4668,VALID,0,VALID,23.7701,VALID,129,VALID,0.816797,
2008-10-17, 00:13:04,VALID,1008.08,VALID,0,VALID,95.4973,VALID,0,VALID,23.7701,VALID,105,VALID,0.585938,
2008-10-17, 00:14:04,VALID,1008.11,VALID,0,VALID,95.4973,VALID,0,VALID,23.7701,VALID,96,VALID,0.722266,
2008-10-17, 00:15:04,VALID,1008.07,VALID,0,VALID,95.5049,VALID,0.105969,VALID,23.772,VALID,95,VALID,0.761328,
2008-10-17, 00:16:04,VALID,1008.11,VALID,0,VALID,95.4897,VALID,0,VALID,23.7914,VALID,106,VALID,0.740234,
2008-10-17, 00:17:04,VALID,1008.08,VALID,0,VALID,95.5202,VALID,0,VALID,23.7507,VALID,85,VALID,0.703906,
2008-10-17, 00:18:04,VALID,1008.1,VALID,0,VALID,95.4897,VALID,0.105969,VALID,23.7701,VALID,89,VALID,0.765625,
2008-10-17, 00:19:04,VALID,1008.1,VALID,0,VALID,95.4897,VALID,0.105969,VALID,23.7507,VALID,88,VALID,0.665625,
2008-10-17, 00:20:04,VALID,1008.1,VALID,0,VALID,95.5049,VALID,0.105969,VALID,23.7701,VALID,76,VALID,0.863672,
2008-10-17, 00:21:04,VALID,1008.07,VALID,0,VALID,95.5126,VALID,0.105969,VALID,23.7701,VALID,88,VALID,0.911328,
2008-10-17, 00:22:04,VALID,1008.06,VALID,0,VALID,95.5354,VALID,0.105969,VALID,23.7312,VALID,90,VALID,1.09531,
2008-10-17, 00:23:04,VALID,1008.06,VALID,0,VALID,95.5049,VALID,0.105969,VALID,23.7117,VALID,86,VALID,0.720703,
2008-10-17, 00:24:04,VALID,1008.05,VALID,0,VALID,95.4821,VALID,0.105969,VALID,23.7312,VALID,71,VALID,0.6375,
2008-10-17, 00:25:04,VALID,1008.06,VALID,0,VALID,95.5202,VALID,0.105969,VALID,23.7507,VALID,62,VALID,0.743359,
2008-10-17, 00:26:04,VALID,1008.07,VALID,0,VALID,95.4973,VALID,0.105969,VALID,23.6904,VALID,60,VALID,1.15742,
2008-10-17, 00:27:04,VALID,1008.07,VALID,0,VALID,95.5507,VALID,0.105969,VALID,23.7117,VALID,68,VALID,1.06016,
2008-10-17, 00:28:04,VALID,1008.06,VALID,0,VALID,95.5354,VALID,0.105969,VALID,23.6922,VALID,55,VALID,1.08125,
2008-10-17, 00:29:04,VALID,1008.08,VALID,0,VALID,95.5278,VALID,0.105969,VALID,23.7312,VALID,101,VALID,1.24844,
2008-10-17, 00:30:04,VALID,1008.07,VALID,0,VALID,95.5431,VALID,0,VALID,23.7117,VALID,93,VALID,0.975,
2008-10-17, 00:31:04,VALID,1008.08,VALID,0,VALID,95.5278,VALID,0,VALID,23.7312,VALID,112,VALID,0.989453,
2008-10-17, 00:32:04,VALID,1008.07,VALID,0,VALID,95.5431,VALID,0.105969,VALID,23.7312,VALID,107,VALID,0.95,
2008-10-17, 00:33:04,VALID,1008.07,VALID,0,VALID,95.5354,VALID,0.105969,VALID,23.7312,VALID,104,VALID,0.934375,
2008-10-17, 00:34:04,VALID,1008.05,VALID,0,VALID,95.5202,VALID,0.105969,VALID,23.7701,VALID,89,VALID,0.623047,
2008-10-17, 00:35:04,VALID,1008.07,VALID,0,VALID,95.5278,VALID,0.105969,VALID,23.7896,VALID,85,VALID,0.452734,
2008-10-17, 00:36:04,VALID,1008.05,VALID,0,VALID,95.5354,VALID,0.105969,VALID,23.7701,VALID,85,VALID,0.453125,
2008-10-17, 00:37:04,VALID,1008.04,VALID,0,VALID,95.5431,VALID,0.105969,VALID,23.7896,VALID,74,VALID,0.425781,
2008-10-17, 00:38:04,VALID,1008.04,VALID,0,VALID,95.5431,VALID,0.105969,VALID,23.7701,VALID,74,VALID,0.525,
2008-10-17, 00:39:04,VALID,1008.02,VALID,0,VALID,95.5431,VALID,0.105969,VALID,23.7701,VALID,87,VALID,0.511328,
2008-10-17, 00:40:04,VALID,1007.99,VALID,0,VALID,95.5354,VALID,0.105969,VALID,23.7896,VALID,88,VALID,0.458203,
2008-10-17, 00:41:04,VALID,1007.99,VALID,0,VALID,95.5431,VALID,0.105969,VALID,23.7701,VALID,93,VALID,0.776563,
2008-10-17, 00:42:04,VALID,1007.99,VALID,0,VALID,95.5126,VALID,0,VALID,23.7896,VALID,102,VALID,0.645703,
2008-10-17, 00:43:04,VALID,1007.97,VALID,0,VALID,95.5431,VALID,0.105969,VALID,23.7701,VALID,114,VALID,0.642187,
2008-10-17, 00:44:04,VALID,1007.98,VALID,0,VALID,95.5202,VALID,0.105969,VALID,23.7896,VALID,118,VALID,0.629687,
2008-10-17, 00:45:04,VALID,1007.96,VALID,0,VALID,95.5049,VALID,0.105969,VALID,23.7896,VALID,114,VALID,0.370703,
2008-10-17, 00:46:04,VALID,1007.94,VALID,0,VALID,95.5354,VALID,0.105969,VALID,23.8073,VALID,108,VALID,0.455859,
2008-10-17, 00:47:04,VALID,1007.94,VALID,0,VALID,95.5354,VALID,0.105969,VALID,23.8091,VALID,100,VALID,0.892969,
2008-10-17, 00:48:04,VALID,1007.94,VALID,0,VALID,95.5049,VALID,0.105969,VALID,23.7896,VALID,88,VALID,0.589453,
2008-10-17, 00:49:04,VALID,1007.93,VALID,0,VALID,95.5126,VALID,0,VALID,23.8286,VALID,85,VALID,0.562891,
2008-10-17, 00:50:04,VALID,1007.93,VALID,0,VALID,95.5049,VALID,0.105969,VALID,23.8499,VALID,95,VALID,0.545703,
2008-10-17, 00:51:04,VALID,1007.92,VALID,0,VALID,95.4744,VALID,0.105969,VALID,23.8286,VALID,83,VALID,0.831641,
2008-10-17, 00:52:04,VALID,1007.9,VALID,0,VALID,95.4821,VALID,0,VALID,23.8304,VALID,69,VALID,0.463672,
2008-10-17, 00:53:04,VALID,1007.9,VALID,0,VALID,95.4744,VALID,0,VALID,23.8304,VALID,47,VALID,0.585547,
2008-10-17, 00:54:04,VALID,1007.86,VALID,0.5,VALID,95.4592,VALID,0,VALID,23.8304,VALID,25,VALID,0.647266,
2008-10-17, 00:55:04,VALID,1007.85,VALID,0,VALID,95.4668,VALID,0,VALID,23.8091,VALID,72,VALID,0.437891,
2008-10-17, 00:56:04,VALID,1007.84,VALID,0,VALID,95.4668,VALID,0,VALID,23.8304,VALID,65,VALID,0.178906,
2008-10-17, 00:57:04,VALID,1007.81,VALID,0,VALID,95.4516,VALID,0,VALID,23.8304,VALID,72,VALID,0.407031,
2008-10-17, 00:58:04,VALID,1007.82,VALID,0,VALID,95.4516,VALID,0,VALID,23.8499,VALID,73,VALID,0.265234,
2008-10-17, 00:59:04,VALID,1007.82,VALID,0,VALID,95.4668,VALID,0,VALID,23.8517,VALID,91,VALID,0.390234,
2008-10-17, 01:00:04,VALID,1007.78,VALID,0,VALID,95.4439,VALID,0,VALID,23.8499,VALID,91,VALID,0.309375,
2008-10-17, 01:01:04,VALID,1007.8,VALID,0,VALID,95.4363,VALID,0,VALID,23.8499,VALID,89,VALID,0.229687,
2008-10-17, 01:02:04,VALID,1007.77,VALID,0,VALID,95.4439,VALID,0,VALID,23.8712,VALID,9,VALID,0.551953,
2008-10-17, 01:03:04,VALID,1007.78,VALID,0,VALID,95.4439,VALID,0,VALID,23.8694,VALID,341,VALID,0.266797,
2008-10-17, 01:04:04,VALID,1007.76,VALID,0,VALID,95.4363,VALID,0,VALID,23.8499,VALID,341,VALID,0,
2008-10-17, 01:05:04,VALID,1007.76,VALID,0,VALID,95.4287,VALID,0,VALID,23.8694,VALID,341,VALID,0,
2008-10-17, 01:06:04,VALID,1007.76,VALID,0,VALID,95.4439,VALID,0,VALID,23.8694,VALID,341,VALID,0,
2008-10-17, 01:07:04,VALID,1007.73,VALID,0,VALID,95.4287,VALID,0.105969,VALID,23.8871,VALID,349,VALID,0.279687,
2008-10-17, 01:08:04,VALID,1007.75,VALID,0,VALID,95.4211,VALID,0.105969,VALID,23.8676,VALID,349,VALID,0.0046875,
2008-10-17, 01:09:04,VALID,1007.76,VALID,0,VALID,95.4058,VALID,0.105969,VALID,23.8676,VALID,41,VALID,0.462109,
2008-10-17, 01:10:04,VALID,1007.75,VALID,0,VALID,95.4058,VALID,0.105969,VALID,23.8889,VALID,70,VALID,0.485156,
2008-10-17, 01:11:04,VALID,1007.75,VALID,0,VALID,95.4058,VALID,0.105969,VALID,23.8481,VALID,71,VALID,0.576172,
2008-10-17, 01:12:04,VALID,1007.72,VALID,0,VALID,95.3982,VALID,0.105969,VALID,23.8871,VALID,68,VALID,0.658594,
2008-10-17, 01:13:04,VALID,1007.73,VALID,0,VALID,95.4058,VALID,0.105969,VALID,23.8694,VALID,63,VALID,0.471875,
2008-10-17, 01:14:04,VALID,1007.7,VALID,0,VALID,95.3905,VALID,0,VALID,23.8286,VALID,63,VALID,0.442187,
2008-10-17, 01:15:04,VALID,1007.72,VALID,0,VALID,95.3677,VALID,0.105969,VALID,23.8286,VALID,63,VALID,0.191406,
2008-10-17, 01:16:04,VALID,1007.71,VALID,0,VALID,95.36,VALID,0,VALID,23.8286,VALID,4,VALID,0.460156,
2008-10-17, 01:17:04,VALID,1007.68,VALID,0,VALID,95.3524,VALID,0.105969,VALID,23.8091,VALID,68,VALID,0.488672,
2008-10-17, 01:18:04,VALID,1007.65,VALID,0,VALID,95.3219,VALID,0.105969,VALID,23.8091,VALID,74,VALID,0.757813,
2008-10-17, 01:19:04,VALID,1007.64,VALID,0,VALID,95.3219,VALID,0.105969,VALID,23.8109,VALID,62,VALID,0.582031,
2008-10-17, 01:20:04,VALID,1007.65,VALID,0,VALID,95.3143,VALID,0.105969,VALID,23.8286,VALID,36,VALID,0.419922,
2008-10-17, 01:21:04,VALID,1007.64,VALID,0,VALID,95.2762,VALID,0,VALID,23.8091,VALID,30,VALID,0.499609,
2008-10-17, 01:22:04,VALID,1007.63,VALID,0,VALID,95.2533,VALID,0,VALID,23.7914,VALID,56,VALID,0.453125,
2008-10-17, 01:23:04,VALID,1007.59,VALID,0,VALID,95.2609,VALID,0,VALID,23.772,VALID,66,VALID,0.482422,
2008-10-17, 01:24:04,VALID,1007.57,VALID,0,VALID,95.2304,VALID,0,VALID,23.7914,VALID,63,VALID,0.309766,
2008-10-17, 01:25:04,VALID,1007.56,VALID,0,VALID,95.2457,VALID,0,VALID,23.772,VALID,44,VALID,0.298828,
2008-10-17, 01:26:04,VALID,1007.51,VALID,0,VALID,95.2228,VALID,0,VALID,23.772,VALID,88,VALID,0.300781,
2008-10-17, 01:27:04,VALID,1007.5,VALID,0,VALID,95.2075,VALID,0,VALID,23.772,VALID,88,VALID,0.0105469,
2008-10-17, 01:28:04,VALID,1007.48,VALID,0,VALID,95.1999,VALID,0,VALID,23.772,VALID,88,VALID,0,
2008-10-17, 01:29:04,VALID,1007.48,VALID,0,VALID,95.1542,VALID,0,VALID,23.7525,VALID,344,VALID,0.172266,
2008-10-17, 01:30:04,VALID,1007.45,VALID,0,VALID,95.1618,VALID,0,VALID,23.7525,VALID,13,VALID,0.0582031,
2008-10-17, 01:31:04,VALID,1007.47,VALID,0,VALID,95.116,VALID,0,VALID,23.733,VALID,76,VALID,0.336719,
2008-10-17, 01:32:04,VALID,1007.45,VALID,0,VALID,95.1008,VALID,0,VALID,23.7525,VALID,336,VALID,0.482812,
2008-10-17, 01:33:04,VALID,1007.5,VALID,0,VALID,95.1084,VALID,0,VALID,23.733,VALID,28,VALID,0.247656,
2008-10-17, 01:34:04,VALID,1007.48,VALID,0,VALID,95.1008,VALID,0,VALID,23.733,VALID,46,VALID,0.509375,
2008-10-17, 01:35:04,VALID,1007.47,VALID,0,VALID,95.0703,VALID,0,VALID,23.733,VALID,32,VALID,0.210938,
2008-10-17, 01:36:04,VALID,1007.46,VALID,0,VALID,95.055,VALID,0,VALID,23.733,VALID,32,VALID,0,
2008-10-17, 01:37:04,VALID,1007.47,VALID,0,VALID,95.0703,VALID,0.105969,VALID,23.7312,VALID,74,VALID,0.654297,
2008-10-17, 01:38:04,VALID,1007.49,VALID,0,VALID,95.0321,VALID,0,VALID,23.7525,VALID,70,VALID,0.599219,
2008-10-17, 01:39:04,VALID,1007.49,VALID,0,VALID,95.0169,VALID,0.105969,VALID,23.7117,VALID,87,VALID,0.604688,
2008-10-17, 01:40:04,VALID,1007.5,VALID,0,VALID,94.9788,VALID,0.105969,VALID,23.7312,VALID,96,VALID,0.516016,
2008-10-17, 01:41:04,VALID,1007.51,VALID,0,VALID,94.994,VALID,0.105969,VALID,23.772,VALID,96,VALID,0.313672,
2008-10-17, 01:42:04,VALID,1007.49,VALID,0,VALID,94.9788,VALID,0,VALID,23.7525,VALID,96,VALID,0.346484,
2008-10-17, 01:43:04,VALID,1007.52,VALID,0,VALID,94.9864,VALID,0,VALID,23.7312,VALID,96,VALID,0,
2008-10-17, 01:44:04,VALID,1007.54,VALID,0,VALID,94.9559,VALID,0.105969,VALID,23.7312,VALID,96,VALID,0,
2008-10-17, 01:45:04,VALID,1007.54,VALID,0,VALID,94.8949,VALID,0.105969,VALID,23.7312,VALID,63,VALID,0.533594,
2008-10-17, 01:46:04,VALID,1007.56,VALID,0,VALID,94.9178,VALID,0.105969,VALID,23.7525,VALID,63,VALID,0,
2008-10-17, 01:47:04,VALID,1007.55,VALID,0,VALID,94.9025,VALID,0.105969,VALID,23.7312,VALID,63,VALID,0,
2008-10-17, 01:48:04,VALID,1007.57,VALID,0,VALID,94.8644,VALID,0,VALID,23.7117,VALID,61,VALID,0.00625,
2008-10-17, 01:49:04,VALID,1007.58,VALID,0,VALID,94.8262,VALID,0,VALID,23.7312,VALID,341,VALID,0.235938,
2008-10-17, 01:50:04,VALID,1007.59,VALID,0,VALID,94.8568,VALID,0,VALID,23.7312,VALID,341,VALID,0.243359,
2008-10-17, 01:51:04,VALID,1007.57,VALID,0,VALID,94.8186,VALID,0.105969,VALID,23.7525,VALID,341,VALID,0.00117188,
2008-10-17, 01:52:04,VALID,1007.58,VALID,0,VALID,94.7881,VALID,0.105969,VALID,23.7507,VALID,341,VALID,0.0234375,
2008-10-17, 01:53:04,VALID,1007.55,VALID,0,VALID,94.7957,VALID,0.105969,VALID,23.7099,VALID,341,VALID,0,
2008-10-17, 01:54:04,VALID,1007.52,VALID,0,VALID,94.7957,VALID,0.105969,VALID,23.7312,VALID,341,VALID,0,
2008-10-17, 01:55:04,VALID,1007.53,VALID,0,VALID,94.7881,VALID,0.105969,VALID,23.7312,VALID,341,VALID,0.113281,
2008-10-17, 01:56:04,VALID,1007.56,VALID,0,VALID,94.7957,VALID,0.105969,VALID,23.7099,VALID,341,VALID,0.155859,
2008-10-17, 01:57:04,VALID,1007.51,VALID,0,VALID,94.7881,VALID,0.105969,VALID,23.7099,VALID,341,VALID,0.182812,
2008-10-17, 01:58:04,VALID,1007.52,VALID,0,VALID,94.7957,VALID,0.105969,VALID,23.7312,VALID,38,VALID,0.217578,
2008-10-17, 01:59:04,VALID,1007.51,VALID,0,VALID,94.7881,VALID,0,VALID,23.7701,VALID,38,VALID,0.150391,
2008-10-17, 02:00:04,VALID,1007.5,VALID,0,VALID,94.8034,VALID,0.105969,VALID,23.7312,VALID,38,VALID,0.0925781,
2008-10-17, 02:01:04,VALID,1007.51,VALID,0,VALID,94.7881,VALID,0.105969,VALID,23.7312,VALID,38,VALID,0.273047,
2008-10-17, 02:02:04,VALID,1007.52,VALID,0,VALID,94.75,VALID,0.105969,VALID,23.7312,VALID,36,VALID,0.312109,
2008-10-17, 02:03:04,VALID,1007.55,VALID,0,VALID,94.7424,VALID,0.105969,VALID,23.7312,VALID,7,VALID,0.401172,
2008-10-17, 02:04:04,VALID,1007.54,VALID,0,VALID,94.7576,VALID,0.105969,VALID,23.7312,VALID,357,VALID,0.428516,
2008-10-17, 02:05:04,VALID,1007.54,VALID,0,VALID,94.7652,VALID,0.105969,VALID,23.7507,VALID,356,VALID,0.314063,
2008-10-17, 02:06:04,VALID,1007.57,VALID,0,VALID,94.75,VALID,0.105969,VALID,23.7117,VALID,356,VALID,0.292969,
2008-10-17, 02:07:04,VALID,1007.56,VALID,0,VALID,94.7271,VALID,0,VALID,23.6922,VALID,349,VALID,0.274219,
2008-10-17, 02:08:04,VALID,1007.56,VALID,0,VALID,94.7195,VALID,0,VALID,23.6727,VALID,349,VALID,0,
2008-10-17, 02:09:04,VALID,1007.56,VALID,0,VALID,94.7576,VALID,0,VALID,23.7135,VALID,349,VALID,0.0472656,
2008-10-17, 02:10:04,VALID,1007.55,VALID,0,VALID,94.7347,VALID,0,VALID,23.6745,VALID,349,VALID,0.00351562,
2008-10-17, 02:11:04,VALID,1007.53,VALID,0,VALID,94.7652,VALID,0,VALID,23.6745,VALID,349,VALID,0.00117188,
2008-10-17, 02:12:04,VALID,1007.54,VALID,0,VALID,94.7652,VALID,0,VALID,23.655,VALID,349,VALID,0,
2008-10-17, 02:13:04,VALID,1007.53,VALID,0,VALID,94.7881,VALID,0,VALID,23.655,VALID,349,VALID,0.178516,
2008-10-17, 02:14:04,VALID,1007.51,VALID,0,VALID,94.8034,VALID,0,VALID,23.6356,VALID,349,VALID,0.224219,
2008-10-17, 02:15:04,VALID,1007.5,VALID,0,VALID,94.8339,VALID,0,VALID,23.655,VALID,349,VALID,0.180469,
2008-10-17, 02:16:04,VALID,1007.48,VALID,0,VALID,94.8644,VALID,0,VALID,23.6356,VALID,349,VALID,0.352734,
2008-10-17, 02:17:04,VALID,1007.5,VALID,0,VALID,94.8644,VALID,0,VALID,23.6356,VALID,22,VALID,0.355859,
2008-10-17, 02:18:04,VALID,1007.49,VALID,0,VALID,94.8949,VALID,0,VALID,23.6356,VALID,46,VALID,0.282422,
2008-10-17, 02:19:04,VALID,1007.46,VALID,0,VALID,94.9406,VALID,0,VALID,23.655,VALID,52,VALID,0.163281,
2008-10-17, 02:20:04,VALID,1007.44,VALID,0,VALID,94.9406,VALID,0,VALID,23.6338,VALID,35,VALID,0.169141,
2008-10-17, 02:21:04,VALID,1007.48,VALID,0,VALID,94.9635,VALID,0,VALID,23.6356,VALID,35,VALID,0,
2008-10-17, 02:22:04,VALID,1007.47,VALID,0,VALID,94.9788,VALID,0,VALID,23.6356,VALID,35,VALID,0,
2008-10-17, 02:23:04,VALID,1007.49,VALID,0,VALID,94.9864,VALID,0,VALID,23.6356,VALID,35,VALID,0,
2008-10-17, 02:24:04,VALID,1007.48,VALID,0,VALID,95.0093,VALID,0,VALID,23.6161,VALID,35,VALID,0,
2008-10-17, 02:25:04,VALID,1007.47,VALID,0,VALID,95.0093,VALID,0,VALID,23.655,VALID,35,VALID,0,
2008-10-17, 02:26:04,VALID,1007.45,VALID,0,VALID,95.0245,VALID,0,VALID,23.6161,VALID,35,VALID,0,
2008-10-17, 02:27:04,VALID,1007.46,VALID,0,VALID,95.055,VALID,0,VALID,23.6356,VALID,35,VALID,0,
2008-10-17, 02:28:04,VALID,1007.47,VALID,0,VALID,95.0626,VALID,0,VALID,23.6161,VALID,35,VALID,0,
2008-10-17, 02:29:04,VALID,1007.43,VALID,0,VALID,95.0626,VALID,0,VALID,23.5966,VALID,35,VALID,0.154687,
2008-10-17, 02:30:04,VALID,1007.42,VALID,0,VALID,95.0779,VALID,0,VALID,23.5966,VALID,35,VALID,0.126563,
2008-10-17, 02:31:04,VALID,1007.4,VALID,0,VALID,95.1008,VALID,0,VALID,23.5966,VALID,34,VALID,0.0757812,
2008-10-17, 02:32:04,VALID,1007.38,VALID,0,VALID,95.1008,VALID,0,VALID,23.5771,VALID,34,VALID,0,
2008-10-17, 02:33:04,VALID,1007.38,VALID,0,VALID,95.0855,VALID,0,VALID,23.5558,VALID,34,VALID,0,
2008-10-17, 02:34:04,VALID,1007.36,VALID,0,VALID,95.116,VALID,0,VALID,23.6161,VALID,34,VALID,0,
2008-10-17, 02:35:04,VALID,1007.37,VALID,0,VALID,95.1313,VALID,0,VALID,23.5966,VALID,34,VALID,0,
2008-10-17, 02:36:04,VALID,1007.39,VALID,0,VALID,95.1313,VALID,0,VALID,23.5771,VALID,34,VALID,0,
2008-10-17, 02:37:04,VALID,1007.4,VALID,0,VALID,95.1465,VALID,0,VALID,23.5771,VALID,34,VALID,0.0476562,
2008-10-17, 02:38:04,VALID,1007.39,VALID,0,VALID,95.1618,VALID,0,VALID,23.5771,VALID,34,VALID,0,
2008-10-17, 02:39:04,VALID,1007.39,VALID,0,VALID,95.1542,VALID,0.105969,VALID,23.5753,VALID,38,VALID,0.242969,
2008-10-17, 02:40:04,VALID,1007.4,VALID,0,VALID,95.177,VALID,0,VALID,23.5558,VALID,38,VALID,0.176563,
2008-10-17, 02:41:04,VALID,1007.4,VALID,0,VALID,95.1618,VALID,0,VALID,23.5771,VALID,38,VALID,0.0476562,
2008-10-17, 02:42:04,VALID,1007.39,VALID,0,VALID,95.1999,VALID,0,VALID,23.5771,VALID,50,VALID,0.169531,
2008-10-17, 02:43:04,VALID,1007.4,VALID,0,VALID,95.1847,VALID,0,VALID,23.5771,VALID,52,VALID,0.367188,
2008-10-17, 02:44:04,VALID,1007.4,VALID,0,VALID,95.1923,VALID,0,VALID,23.5558,VALID,52,VALID,0.0375,
2008-10-17, 02:45:04,VALID,1007.46,VALID,0,VALID,95.1999,VALID,0,VALID,23.5966,VALID,73,VALID,0.474609,
2008-10-17, 02:46:04,VALID,1007.43,VALID,0,VALID,95.1999,VALID,0,VALID,23.5966,VALID,84,VALID,0.421094,
2008-10-17, 02:47:04,VALID,1007.44,VALID,0,VALID,95.2152,VALID,0,VALID,23.6161,VALID,89,VALID,0.503906,
2008-10-17, 02:48:04,VALID,1007.46,VALID,0,VALID,95.1999,VALID,0,VALID,23.6161,VALID,90,VALID,0.474609,
2008-10-17, 02:49:04,VALID,1007.44,VALID,0,VALID,95.2152,VALID,0,VALID,23.6356,VALID,90,VALID,0.400391,
2008-10-17, 02:50:04,VALID,1007.44,VALID,0,VALID,95.2152,VALID,0,VALID,23.6338,VALID,89,VALID,0.660156,
2008-10-17, 02:51:04,VALID,1007.43,VALID,0,VALID,95.1999,VALID,0,VALID,23.655,VALID,68,VALID,0.421484,
2008-10-17, 02:52:04,VALID,1007.48,VALID,0,VALID,95.2075,VALID,0,VALID,23.655,VALID,67,VALID,0.413281,
2008-10-17, 02:53:04,VALID,1007.45,VALID,0,VALID,95.177,VALID,0,VALID,23.6338,VALID,67,VALID,0.421094,
2008-10-17, 02:54:04,VALID,1007.47,VALID,0,VALID,95.177,VALID,0,VALID,23.6338,VALID,67,VALID,0.00234375,
2008-10-17, 02:55:04,VALID,1007.45,VALID,0,VALID,95.1923,VALID,0.105969,VALID,23.655,VALID,67,VALID,0.469922,
2008-10-17, 02:56:04,VALID,1007.48,VALID,0,VALID,95.1694,VALID,0,VALID,23.6356,VALID,67,VALID,0.337109,
2008-10-17, 02:57:04,VALID,1007.49,VALID,0,VALID,95.1847,VALID,0,VALID,23.655,VALID,67,VALID,0.319531,
2008-10-17, 02:58:04,VALID,1007.49,VALID,0,VALID,95.1542,VALID,0,VALID,23.6356,VALID,66,VALID,0.430078,
2008-10-17, 02:59:04,VALID,1007.49,VALID,0,VALID,95.1465,VALID,0,VALID,23.6356,VALID,72,VALID,0.572656,
2008-10-17, 03:00:04,VALID,1007.46,VALID,0,VALID,95.1542,VALID,0,VALID,23.5948,VALID,67,VALID,0.529688,
2008-10-17, 03:01:04,VALID,1007.45,VALID,0,VALID,95.1389,VALID,0,VALID,23.6161,VALID,78,VALID,0.405078,
2008-10-17, 03:02:04,VALID,1007.46,VALID,0,VALID,95.1236,VALID,0,VALID,23.6143,VALID,94,VALID,0.602734,
2008-10-17, 03:03:04,VALID,1007.47,VALID,0,VALID,95.0931,VALID,0,VALID,23.6356,VALID,95,VALID,0.321484,
2008-10-17, 03:04:04,VALID,1007.48,VALID,0,VALID,95.1084,VALID,0,VALID,23.6338,VALID,108,VALID,0.6,
2008-10-17, 03:05:04,VALID,1007.53,VALID,0,VALID,95.0931,VALID,0,VALID,23.655,VALID,115,VALID,0.852734,
2008-10-17, 03:06:04,VALID,1007.51,VALID,0,VALID,95.0855,VALID,0,VALID,23.655,VALID,113,VALID,0.638281,
2008-10-17, 03:07:04,VALID,1007.51,VALID,0,VALID,95.0931,VALID,0,VALID,23.6745,VALID,111,VALID,0.674609,
2008-10-17, 03:08:04,VALID,1007.5,VALID,0,VALID,95.0703,VALID,0,VALID,23.6745,VALID,112,VALID,0.390625,
2008-10-17, 03:09:04,VALID,1007.54,VALID,0,VALID,95.0779,VALID,0,VALID,23.694,VALID,112,VALID,0.378906,
2008-10-17, 03:10:04,VALID,1007.5,VALID,0,VALID,95.0474,VALID,0,VALID,23.6727,VALID,112,VALID,0.468359,
2008-10-17, 03:11:04,VALID,1007.52,VALID,0,VALID,95.0398,VALID,0,VALID,23.694,VALID,76,VALID,0.519141,
2008-10-17, 03:12:04,VALID,1007.54,VALID,0,VALID,95.0169,VALID,0,VALID,23.7135,VALID,56,VALID,0.330469,
2008-10-17, 03:13:04,VALID,1007.53,VALID,0,VALID,95.0398,VALID,0,VALID,23.7135,VALID,56,VALID,0.199609,
2008-10-17, 03:14:04,VALID,1007.53,VALID,0,VALID,95.0474,VALID,0,VALID,23.7135,VALID,52,VALID,0.283594,
2008-10-17, 03:15:04,VALID,1007.53,VALID,0,VALID,95.0245,VALID,0,VALID,23.6922,VALID,52,VALID,0.202734,
2008-10-17, 03:16:04,VALID,1007.55,VALID,0,VALID,95.0321,VALID,0,VALID,23.7135,VALID,48,VALID,0.232812,
2008-10-17, 03:17:04,VALID,1007.55,VALID,0,VALID,95.0093,VALID,0,VALID,23.6727,VALID,48,VALID,0.321875,
2008-10-17, 03:18:04,VALID,1007.56,VALID,0,VALID,95.0169,VALID,0,VALID,23.6727,VALID,48,VALID,0.246484,
2008-10-17, 03:19:04,VALID,1007.57,VALID,0,VALID,94.9788,VALID,0,VALID,23.6727,VALID,48,VALID,0.176563,
2008-10-17, 03:20:04,VALID,1007.59,VALID,0,VALID,94.994,VALID,0,VALID,23.7135,VALID,48,VALID,0.255469,
2008-10-17, 03:21:04,VALID,1007.6,VALID,0,VALID,94.994,VALID,0,VALID,23.6745,VALID,48,VALID,0.0183594,
2008-10-17, 03:22:04,VALID,1007.6,VALID,0,VALID,94.994,VALID,0,VALID,23.6745,VALID,48,VALID,0,
2008-10-17, 03:23:04,VALID,1007.6,VALID,0,VALID,95.0093,VALID,0,VALID,23.6745,VALID,48,VALID,0,
2008-10-17, 03:24:04,VALID,1007.63,VALID,0,VALID,94.9864,VALID,0,VALID,23.6532,VALID,48,VALID,0,
2008-10-17, 03:25:04,VALID,1007.64,VALID,0,VALID,95.0169,VALID,0,VALID,23.694,VALID,48,VALID,0,
2008-10-17, 03:26:04,VALID,1007.64,VALID,0,VALID,95.0245,VALID,0,VALID,23.6532,VALID,48,VALID,0.157031,
2008-10-17, 03:27:04,VALID,1007.65,VALID,0,VALID,95.0398,VALID,0,VALID,23.6727,VALID,48,VALID,0.246094,
2008-10-17, 03:28:04,VALID,1007.65,VALID,0,VALID,95.055,VALID,0,VALID,23.694,VALID,48,VALID,0.255078,
2008-10-17, 03:29:04,VALID,1007.64,VALID,0,VALID,95.055,VALID,0,VALID,23.7135,VALID,49,VALID,0.239453,
2008-10-17, 03:30:04,VALID,1007.65,VALID,0,VALID,95.0626,VALID,0,VALID,23.7135,VALID,55,VALID,0.35,
2008-10-17, 03:31:05,VALID,1007.66,VALID,0,VALID,95.0855,VALID,0,VALID,23.7135,VALID,55,VALID,0.317187,
2008-10-17, 03:32:05,VALID,1007.66,VALID,0,VALID,95.0626,VALID,0,VALID,23.7135,VALID,55,VALID,0.401563,
2008-10-17, 03:33:05,VALID,1007.67,VALID,0,VALID,95.0779,VALID,0,VALID,23.694,VALID,111,VALID,0.43125,
2008-10-17, 03:34:05,VALID,1007.7,VALID,0,VALID,95.0855,VALID,0,VALID,23.694,VALID,128,VALID,0.427344,
2008-10-17, 03:35:05,VALID,1007.66,VALID,0,VALID,95.0931,VALID,0,VALID,23.6745,VALID,137,VALID,0.446484,
2008-10-17, 03:36:05,VALID,1007.66,VALID,0,VALID,95.0931,VALID,0,VALID,23.6745,VALID,137,VALID,0.347656,
2008-10-17, 03:37:05,VALID,1007.66,VALID,0,VALID,95.1008,VALID,0.105969,VALID,23.694,VALID,137,VALID,0.346094,
2008-10-17, 03:38:05,VALID,1007.64,VALID,0,VALID,95.1008,VALID,0.105969,VALID,23.694,VALID,137,VALID,0.501953,
2008-10-17, 03:39:05,VALID,1007.63,VALID,0,VALID,95.116,VALID,0.105969,VALID,23.6922,VALID,119,VALID,0.402344,
2008-10-17, 03:40:05,VALID,1007.65,VALID,0,VALID,95.1236,VALID,0.105969,VALID,23.6904,VALID,119,VALID,0.2625,
2008-10-17, 03:41:05,VALID,1007.64,VALID,0,VALID,95.1389,VALID,0.105969,VALID,23.6922,VALID,119,VALID,0,
2008-10-17, 03:42:05,VALID,1007.66,VALID,0,VALID,95.1008,VALID,0.105969,VALID,23.6922,VALID,119,VALID,0.192188,